This is the latest recevied weather packets stored in our database for station/object KF0JHJ. If no packets are shown the sender has not sent any weather packets the latest 10 day(s).
| Time | Temp. | Humidity | Pressure | Rain* | Wind** | Luminosity | Snow |
|---|---|---|---|---|---|---|---|
| 1777838876 | 21.67° C | 32% | 1004.4 hPa | - | - | 646 W/m² | - |
| 1777838571 | 21.67° C | 32% | 1004.4 hPa | - | - | 612 W/m² | - |
| 1777838269 | 21.67° C | 33% | 1004.6 hPa | - | - | 653 W/m² | - |
| 1777837965 | 21.11° C | 32% | 1004.7 hPa | - | - | 650 W/m² | - |
| 1777837663 | 21.67° C | 33% | 1004.7 hPa | - | - | 651 W/m² | - |
| 1777837358 | 21.67° C | 35% | 1004.9 hPa | - | - | 651 W/m² | - |
| 1777837055 | 21.67° C | 32% | 1005 hPa | - | - | 632 W/m² | - |
| 1777836751 | 21.11° C | 33% | 1004.6 hPa | - | - | 651 W/m² | - |
| 1777836447 | 21.67° C | 34% | 1004.8 hPa | - | - | 642 W/m² | - |
| 1777836142 | 21.67° C | 34% | 1004.9 hPa | - | - | 664 W/m² | - |
| 1777835839 | 21.67° C | 33% | 1004.8 hPa | - | - | 670 W/m² | - |
| 1777835536 | 21.11° C | 32% | 1004.8 hPa | - | - | 656 W/m² | - |
| 1777835233 | 21.11° C | 32% | 1005 hPa | - | - | 689 W/m² | - |
| 1777834930 | 21.11° C | 33% | 1004.8 hPa | - | - | 672 W/m² | - |
| 1777834627 | 20.56° C | 33% | 1004.8 hPa | - | - | 684 W/m² | - |
| 1777834322 | 21.67° C | 34% | 1005 hPa | - | - | 664 W/m² | - |
| 1777834017 | 21.11° C | 33% | 1004.9 hPa | - | - | 664 W/m² | - |
| 1777833714 | 21.11° C | 39% | 1005.3 hPa | - | - | 666 W/m² | - |
| 1777833410 | 21.11° C | 35% | 1005 hPa | - | - | 680 W/m² | - |
| 1777833108 | 21.11° C | 34% | 1005 hPa | - | - | 689 W/m² | - |
| 1777832806 | 21.11° C | 36% | 1005.2 hPa | - | - | 669 W/m² | - |
| 1777832504 | 21.11° C | 36% | 1005.3 hPa | - | - | 674 W/m² | - |
| 1777832200 | 20.56° C | 36% | 1005 hPa | - | - | 681 W/m² | - |
| 1777831897 | 20.56° C | 35% | 1005.2 hPa | - | - | 688 W/m² | - |
| 1777831594 | 20.56° C | 36% | 1005.3 hPa | - | - | 657 W/m² | - |
* Rain since midnight (hover to see other rain measurements)
** Current wind speed in m/s (hover to see current wind gust speed)